Home   Weather   Medina   Past weeks
Flag for Saudi Arabia

Past Weather in Medina, Saudi Arabia — Yesterday and Last 2 Weeks

Now
64 °F

Clear.


Feels Like: 64 °F
Forecast: 69 / 50 °F
Wind: 12 mph from Southwest

Location: Madinah

Current Time: Jan 16, 2019 at 11:40:43 pm

Latest Report: Jan 16, 2019 at 11:00 pm


Visibility: 10 mi

Pressure: 30.01 "Hg (27.95 "Hg at 606m altitude)

Humidity: 26%

Dew Point: 28 °F

Location of MedinaLocation

Past Weather in Medina — Graph

°F

Medina Temperature Yesterday

Maximum temperature yesterday: 81 °F (at 3:00 pm)
Minimum temperature yesterday: 63 °F (at 7:00 am)
Average temperature yesterday: 71 °F

High & Low Weather Summary for the Past Weeks

 TemperatureHumidityPressure
High84 °F (Jan 12, 4:00 pm)78% (Jan 2, 6:00 am)30.27 "Hg (Jan 2, 6:00 am)
Low52 °F (Jan 9, 7:00 am)12% (Jan 9, 6:00 pm)29.86 "Hg (Jan 13, 1:00 pm)
Average69 °F41%30.02 "Hg
* Reported Jan 1 10:00 pm — Jan 16 10:00 pm, Medina. Weather by CustomWeather, © 2019

Note: Actual official high and low records may vary slightly from our data, if they occured in-between our weather recording intervals... More about our weather records

Advertising

Medina Weather History for the Previous 24 Hours

Scroll right to see more
 ConditionsComfort  
Time TempWeatherWind HumidityBarometerVisibility
10:00 pm
Wed, Jan 16
66 °FClear.16 mph26%30.04 "Hg10 mi
9:00 pm68 °FClear.14 mph28%30.01 "Hg10 mi
8:00 pm70 °FClear.20 mph31%29.98 "Hg10 mi
7:00 pm70 °FClear.18 mph33%29.95 "Hg10 mi
6:00 pm72 °FClear.21 mph31%29.95 "Hg10 mi
5:00 pm73 °FSunny.24 mph29%29.92 "Hg10 mi
4:00 pm75 °FScattered clouds.16 mph39%29.92 "HgN/A
3:00 pm77 °FScattered clouds.18 mph39%29.92 "HgN/A
2:00 pm75 °FScattered clouds.21 mph34%29.92 "HgN/A
1:00 pm73 °FScattered clouds.18 mph47%29.95 "HgN/A
12:00 pm73 °FScattered clouds.21 mph50%29.95 "HgN/A
11:00 am72 °FScattered clouds.16 mph57%29.98 "HgN/A
10:00 am72 °FScattered clouds.16 mph57%29.98 "HgN/A
9:00 am68 °FPassing clouds.7 mph60%29.98 "HgN/A
8:00 am64 °FSunny.6 mph68%29.95 "Hg10 mi
7:00 am64 °FClear.7 mph68%29.95 "Hg10 mi
6:00 am64 °FClear.7 mph68%29.95 "Hg10 mi
5:00 am64 °FClear.No wind64%29.95 "Hg10 mi
4:00 am64 °FClear.6 mph64%29.95 "Hg10 mi
3:00 am64 °FClear.7 mph64%29.95 "Hg10 mi
2:00 am68 °FClear.9 mph64%29.95 "Hg10 mi
1:00 am68 °FClear.8 mph60%29.98 "Hg10 mi
12:00 am68 °FClear.7 mph56%29.98 "Hg10 mi
11:00 pm
Tue, Jan 15
70 °FClear.6 mph53%29.98 "Hg10 mi
Weather by CustomWeather, © 2019

See weather overview